Tracking 28091 objects as of 30-Sep-2023
HD Live streaming from Space Station
objects crossing your sky now

STARLINK-30265

Track STARLINK-30265 now!
10-day predictions
STARLINK-30265 is classified as:


NORAD ID: 57646
Int'l Code: 2023-122Q
Perigee: 559.4 km
Apogee: 561.0 km
Inclination: 43.0 °
Period: 95.7 minutes
Semi major axis: 6931 km
RCS: Unknown
Launch date: August 17, 2023
Source: United States (US)
Launch site: AIR FORCE EASTERN TEST RANGE (AFETR)
Your satellite tracking list
Your tracking list is empty




NASA's NSSDC Master Catalog

Two Line Element Set (TLE):
1 57646U 23122Q   23273.18443793  .00006595  00000-0  47744-3 0  9998
2 57646  42.9990 259.0581 0001145 275.0699  85.0013 15.04500704  8070
Source of the keplerian elements: AFSPC